Location: Realp
(46.5986°N, 8.5022°E)
Time: 09:56:07
(UTC+00:00)

Daily predictions for brighter satellites

Satellite Brightness Start Highest point End
(mag) Time Altitude Azimuth Time Altitude Azimuth Time Altitude Azimuth
COSMOS 2487 2.5 16:46:57 10° NNW 16:50:21 55° ENE 16:53:43 10° SSE
Meteor 1-11 4.5 16:45:01 10° N 16:50:34 49° ENE 16:56:07 10° SSE
Aureole 1 Rocket 3.7 16:47:46 10° NW 16:50:37 41° WSW 16:53:32 10° S
Cosmos 1741 Rocket 4.0 16:45:29 10° NNW 16:50:45 71° ENE 16:55:57 10° SSE
USA 307 4.2 16:48:28 10° WNW 16:52:18 30° N 16:56:05 10° ENE
Envisat 3.8 16:49:14 10° S 16:54:15 59° W 16:59:18 10° NNW
Cosmos 1300 3.8 16:52:10 10° SE 16:55:11 23° E 16:58:14 10° NE
FengYun 1-2 T 4.3 16:50:54 10° SSE 16:56:30 68° ENE 17:02:07 10° N
USA 308 4.2 16:53:16 10° WNW 16:57:04 30° N 17:00:52 10° ENE
NOAA 11 4.2 16:52:50 10° SSE 16:58:12 62° ENE 17:03:35 10° N
BREEZE-M R/B 3.3 16:56:36 10° W 16:59:52 66° N 17:06:11 10° ENE
Feng Yun 1-1 Rocket 4.5 16:55:56 10° SSE 17:01:42 60° ENE 17:07:33 10° N
GEOS 3 Rocket 4.4 16:57:10 10° ESE 17:02:00 36° NE 17:06:54 10° NNW
Helios 1A Rocket 3.8 16:58:34 10° SE 17:02:08 29° ENE 17:05:42 10° N
Cosmos 1850 Rocket 4.2 17:02:36 10° NNW 17:07:56 81° WSW 17:13:15 10° SSE
Cosmos 2369 Rocket 3.8 17:03:51 10° WSW 17:08:56 33° NW 17:14:05 10° NNE
Cosmos 1939 Rocket 3.1 17:06:15 10° SE 17:10:03 45° ENE 17:13:50 10° N
Cosmos 2297 Rocket 3.0 17:05:04 10° N 17:10:04 30° NE 17:15:02 10° ESE
COSMO-SKYMED 1 2.9 17:09:53 10° NNE 17:14:03 43° E 17:18:10 10° S
Cosmos 1452 Rocket 4.0 17:10:56 10° SSW 17:16:10 66° WNW 17:21:26 10° NNE
FALCON 9 DEB 4.5 17:13:29 10° WNW 17:16:36 31° N 17:19:24 12° NE
Cosmos 1689 Rocket 2.6 17:14:08 10° NNE 17:16:50 35° E 17:19:31 10° SSE
Okean O Rocket 2.7 17:12:41 10° S 17:16:55 48° W 17:21:10 10° NNW
Aureole 3 Rocket 3.9 17:14:52 10° SE 17:18:04 27° E 17:22:08 10° NNE
H-2A R/B 3.1 17:15:30 10° ESE 17:19:57 27° ENE 17:24:27 10° N
Cosmos 2058 4.4 17:18:31 10° NNE 17:21:04 16° ENE 17:21:44 15° E
H-2A R/B 3.9 17:17:41 10° N 17:21:25 31° WNW 17:25:03 10° SW
Cosmos 1328 4.2 17:18:04 10° NNW 17:21:59 66° W 17:25:53 10° S
IRS-1C Rocket 4.0 17:19:46 10° SSE 17:25:00 72° ENE 17:30:17 10° N
ADEOS Rocket 4.2 17:19:35 10° N 17:25:32 48° WNW 17:32:06 10° SW
Cosmos 1340 3.5 17:23:09 10° N 17:26:30 29° ENE 17:29:50 10° SE
CZ-4 R/B 1.7 17:24:07 10° SE 17:27:46 39° ENE 17:31:24 10° N
Cosmos 1825 Rocket 3.6 17:23:51 10° N 17:28:20 88° W 17:32:46 10° S
ERS-2 3.1 17:25:13 10° N 17:28:46 50° WNW 17:32:18 10° SSW
Cosmos 1553 Rocket 4.5 17:23:50 10° SSE 17:29:35 37° E 17:35:17 10° NNE
BREEZE-M DEB (TANK) 4.5 17:27:37 10° W 17:31:24 59° N 17:42:44 14° ENE
YAOGAN 1 3.0 17:27:32 10° SE 17:31:34 40° ENE 17:35:37 10° N
Lacrosse 5 3.3 17:30:18 10° WNW 17:34:45 30° NNW 17:38:57 11° NE
Cosmos 2219 3.5 17:30:08 10° NNW 17:35:42 47° ENE 17:41:14 10° SE
Meteor 2-21 Rocket 4.4 17:29:49 10° N 17:36:04 86° E 17:42:12 10° S
SKYMED 3 4.5 17:33:45 10° NNE 17:38:07 77° ESE 17:42:27 10° S
CZ-4B R/B 2.9 17:37:05 10° N 17:40:08 36° WNW 17:43:05 10° SW
SAR-Lupe-4 3.9 17:37:05 10° N 17:40:40 68° WNW 17:44:13 10° SSW
Cosmos 1400 Rocket 3.1 17:38:13 10° SSE 17:42:09 45° E 17:46:06 10° NNE
Geosat 4.3 17:37:51 10° NE 17:42:40 43° ESE 17:47:25 10° S
Cosmos 44 3.2 17:39:41 10° SSW 17:44:03 56° ESE 17:47:38 16° NE
Okean-O 2.5 17:40:26 10° SSE 17:44:50 69° ENE 17:49:16 10° N
USA 305 4.0 17:40:57 10° NW 17:44:52 32° N 17:46:51 22° NE
Cosmos 1726 Rocket 3.5 17:40:49 10° S 17:45:09 86° E 17:49:33 10° N
CZ-4C R/B 4.3 17:43:30 10° NW 17:47:56 19° N 17:52:05 12° NE
USA 306 3.9 17:47:13 10° NW 17:51:08 33° N 17:52:49 24° NE
Cosmos 1745 Rocket 4.2 17:48:21 10° N 17:54:23 46° ENE 18:00:25 10° SSE
SL-08 R/B 4.4 17:49:51 10° N 17:56:02 64° ENE 18:02:05 10° SSE
Aureole 3 2.5 17:54:39 10° S 17:58:00 76° E 18:00:42 12° NNE
Cosmos 1606 Rocket 4.4 17:55:21 10° SSW 17:59:36 53° WNW 18:03:56 10° N
Cosmos 1331 Rocket 4.3 17:54:38 10° SSW 17:59:46 69° WNW 18:04:56 10° NNE
FALCON 9 DEB 3.4 17:56:52 10° SW 17:59:55 41° SE 17:59:55 41° SE
SKYMED 2 4.1 17:57:52 10° N 18:02:10 61° WNW 18:06:26 10° SSW
Cosmos 2228 4.2 17:59:53 10° SSW 18:03:56 44° WNW 18:08:02 10° N
GENESIS II 4.4 18:00:34 10° SW 18:04:35 73° NW 18:07:02 23° NNE
ATLAS 5 CENTAUR R/B 4.1 18:02:54 10° NW 18:05:36 15° NNW 18:08:29 10° NNE
SL-4 R/B 2.7 18:03:48 10° WNW 18:07:10 37° N 18:08:01 32° NNE
FALCON 9 DEB 3.3 18:04:24 10° SW 18:07:15 49° SSE 18:07:15 49° SSE
CZ-2C R/B 3.2 18:01:45 10° SSE 18:07:35 84° ENE 18:13:19 10° NNW
NOSS 2-2 (D) 4.5 18:02:10 10° NW 18:07:43 82° NE 18:13:51 17° SE
Cosmos 292 Rocket 4.0 18:04:09 10° SSW 18:08:56 73° WNW 18:13:46 10° NNE
ARGOS 3.3 18:09:09 22° SE 18:12:25 52° ENE 18:17:41 10° N
Cosmos 1346 Rocket 3.0 18:09:18 10° N 18:12:50 48° NE 18:12:50 48° NE
Cosmos 2227 Rocket 2.1 18:08:23 10° NNW 18:14:02 68° ENE 18:17:08 27° SE
Meteor 2-10 Rocket 3.6 18:10:16 10° S 18:15:29 53° E 18:20:32 10° NNE
FALCON 9 DEB 3.5 18:12:22 10° SW 18:15:00 48° S 18:15:00 48° S
Meteor 2-15 4.4 18:09:34 10° S 18:15:37 63° E 18:21:41 10° NNE
SeaSat 1 2.4 18:14:54 36° SE 18:16:50 64° ENE 18:21:44 10° NNW
Cosmos 1892 2.5 18:14:00 10° N 18:17:54 81° E 18:19:18 38° SSE
USA 215 3.6 18:17:28 32° ENE 18:20:12 51° NNE 18:26:29 10° NW
Cosmos 1656 3.5 18:17:08 10° SSW 18:22:37 68° ESE 18:26:21 22° NE
Cosmos 1709 Rocket 4.3 18:18:29 10° N 18:24:35 45° ENE 18:25:51 40° ESE
Cosmos 2263 Rocket 3.8 18:20:50 10° N 18:24:14 19° NE 18:24:14 19° NE
Cosmos 968 Rocket 3.3 18:19:44 10° NNW 18:24:59 74° ENE 18:26:57 39° SE
CSL-04 Rocket 3.6 18:19:45 10° SSE 18:25:19 88° ENE 18:30:53 10° NNW
ATLAS 2AS CENTAUR R/B 3.8 18:19:13 10° NW 18:25:52 31° NNE 18:27:53 27° NE
Cosmos 2058 Rocket 3.7 18:21:48 10° SSW 18:26:12 57° WNW 18:30:39 10° N
Cosmos 1302 Rocket 4.1 18:23:01 10° SSW 18:28:16 75° WNW 18:33:35 10° NNE
HJ-1C 4.5 18:30:28 38° NNW 18:30:28 38° NNW 18:32:39 10° NNW
FALCON 9 DEB 4.1 18:27:03 10° SW 18:29:11 38° SW 18:29:11 38° SW
Cosmos 1486 Rocket 3.9 18:26:05 10° NNW 18:31:28 87° ENE 18:33:47 35° SSE
USA 307 3.6 18:28:59 10° NW 18:32:53 42° NNE 18:32:53 42° NNE
Cosmos 1697 Rocket 3.3 18:29:06 10° S 18:32:53 37° SSE 18:32:53 37° SSE
USA 308 3.6 18:33:44 10° NW 18:37:27 43° N 18:37:27 43° N
GEOS 3 Rocket 4.1 18:36:45 25° SSE 18:39:50 58° SW 18:45:10 10° NW
Cosmos 1503 Rocket 4.0 18:35:29 10° NNW 18:40:29 61° NE 18:40:29 61° NE
Cosmos 883 Rocket 4.4 18:36:10 10° S 18:42:12 58° E 18:48:12 10° NNE
S3M 3.9 18:37:11 10° S 18:43:18 89° WNW 18:49:30 10° N
CRYOSAT 2 4.4 18:39:47 10° N 18:44:39 76° W 18:49:29 10° SSW
Cosmos 1825 4.4 18:43:35 10° N 18:44:29 17° N 18:44:29 17° N
Cosmos 1354 Rocket 4.1 18:45:04 10° NNW 18:49:38 59° NNE 18:49:38 59° NNE
Milstar 3 4.4 18:46:38 10° SW 18:51:00 18° S 18:51:54 18° SSE
Cosmos 1408 4.4 18:48:47 10° NNW 18:50:33 26° NNW 18:50:33 26° NNW
Cosmos 2297 Rocket 2.9 18:48:54 10° NW 18:54:22 51° WSW 18:57:46 22° S
Cosmos 2058 3.7 18:54:19 10° NNW 18:57:58 48° WNW 18:57:58 48° WNW
MOS 1 Rocket 4.0 18:54:03 10° N 18:58:31 53° WNW 19:03:13 10° SSW
H-2A R/B 2.9 18:53:51 10° S 18:59:03 50° W 19:04:23 10° NNW
CZ-4 R/B 4.1 19:00:14 10° SW 19:02:58 18° W 19:05:41 10° NW
Timation 1 Rocket 4.5 19:03:09 10° NNW 19:08:22 61° NNE 19:08:22 61° NNE
Ariane Rocket 4.0 19:18:51 41° NNW 19:18:51 41° NNW 19:22:09 10° NNW
Lacrosse 5 3.6 19:14:44 10° NW 19:18:09 25° N 19:18:09 25° N
BREEZE-M R/B 4.1 19:18:10 10° WNW 19:23:11 83° NNE 19:23:15 82° NNE
Cosmos 2082 4.3 19:25:12 10° NNW 19:30:18 55° W 19:30:18 55° W
Atlas Centaur 2 4.5 19:26:37 10° SW 19:31:14 22° S 19:31:14 22° S
CZ-4C R/B 3.8 19:32:16 10° NNW 19:37:16 34° NNE 19:37:16 34° NNE
NOSS 3-4 (A) 4.3 19:48:38 10° NW 19:53:45 53° NNW 19:53:45 53° NNW
NOSS 3-4 (C) 4.3 19:48:44 10° NW 19:53:51 53° NNW 19:53:51 53° NNW
Cosmos 2227 Rocket 4.3 19:53:31 10° NW 19:57:31 20° W 19:59:01 18° WSW
USA 215 3.9 20:04:50 50° WNW 20:04:50 50° WNW 20:09:38 10° NW
Cosmos 2263 Rocket 4.2 20:03:54 10° NNW 20:05:55 23° NNW 20:05:55 23° NNW
ATLAS 2AS CENTAUR R/B 3.7 20:10:24 10° NW 20:15:19 44° NNW 20:15:19 44° NNW
